Location: ???? ???
(30.5005°N, 60.5936°E)
Time: 12:39:53
(UTC+00:00)

Cosmos 1844 Rocket - Pass Details

Date: 07 June 2020
Orbit: 826 x 843 km, 71.0° (Epoch: 06 July)

Event Time Altitude Azimuth Distance (km) Brightness Sun altitude
Rises 00:23:14 0° 325° (NW) 3,372 5.8 -6.8°
Reaches altitude 10° 00:26:01 10° 313° (NW) 2,433 4.9 -6.3°
Maximum altitude 00:30:33 26° 258° (WSW) 1,563 3.6 -5.4°
Drops below altitude 10° 00:35:05 10° 203° (SSW) 2,417 4.6 -4.6°
Sets 00:37:51 0° 191° (S) 3,345 5.4 -4.1°
